Zurück zum Katalog

THORAD AGENA D DEB

AktivLEO
NORAD 42510·DEBRIS·🇺🇸 United States

Gestartet Apr 8, 1970 von Vandenberg Space Force Base

Loading…

Nächste Überflüge (nächste 24 Stunden)

TLE

VeraltetSource: Space-Track

Epoche: Sep 3, 2026, 20:33 UTC

1 42510U 70025RQ  26246.85646806  .00000642  00000-0  64154-3 0  9994
2 42510 100.0393 262.7973 0003443 208.1083 151.9883 13.82242633643206

Verfolge THORAD AGENA D DEB in Echtzeit mit AllMySat

Download on the App Store